Location: Newark
(43.0000°N, 1.6781°W)
Time: 09:23:38
(UTC+00:00)

HuskySat-1 - Visible Passes

Search period start: 27 November 2022 00:00
Search period end: 07 December 2022 00:00
Orbit: 366 x 381 km, 51.6° (Epoch: 26 November)

Date Brightness Start Highest point End Pass type
(mag) Time Alt. Az. Time Alt. Az. Time Alt. Az.
29 Nov ? 17:56:58 10° SSE 17:58:23 14° SE 17:58:23 14° SE visible
30 Nov ? 18:28:19 10° SW 18:30:22 35° SSW 18:30:22 35° SSW visible
01 Dec ? 17:26:05 10° S 17:28:26 21° SE 17:30:06 14° E visible
01 Dec ? 19:01:02 10° WSW 19:02:04 19° W 19:02:04 19° W visible
02 Dec ? 17:57:44 10° SW 18:00:45 77° SE 18:01:34 44° ENE visible
03 Dec ? 18:30:20 10° W 18:32:47 33° NW 18:32:47 33° NW visible
04 Dec ? 17:26:32 10° WSW 17:29:33 74° NNW 17:31:50 16° NE visible
04 Dec ? 19:03:19 10° WNW 19:03:45 12° WNW 19:03:45 12° WNW visible
05 Dec ? 17:58:59 10° W 18:01:41 28° NNW 18:02:36 24° NNE visible
06 Dec ? 18:31:39 10° NW 18:33:09 17° NNW 18:33:09 17° NNW visible
